Georgetown, TX

6:23 AM CDT on July 25, 2016 (GMT -0500)
Georgetown Municipal

Weather History for KGTU - February, 2013

Change the Weather History Date:

Friday, February 8, 2013

  Actual Average Record
Temperature  
Mean Temperature 57 °F -  
Max Temperature 68 °F 59 °F 82 °F (2008)
Min Temperature 46 °F 40 °F 28 °F (2002)
Degree Days  
Heating Degree Days 8    
Growing Degree Days 7 (Base 50)    
Moisture  
Dew Point 35 °F    
Average Humidity 52    
Maximum Humidity 71    
Minimum Humidity 18    
Precipitation  
Precipitation 0.00 in - - ()
Sea Level Pressure  
Sea Level Pressure 30.13 in    
Wind  
Wind Speed 12 mph (North)    
Max Wind Speed 20 mph    
Max Gust Speed 28 mph    
Visibility 10 miles    
Events      
Averages and records for this station are not official NWS values.
T = Trace of Precipitation, MM = Missing Value Source: NWS Daily Summary

Daily Weather History Graph

Daily Weather History Graph

Search for Another Location

Airport or City:

Trip Planner

Search our weather history database for the weather conditions in past years. The results will help you decide how hot, cold, wet, or windy it might be!

Date:

Astronomy

Feb. 08, 2013 Rise Set
Actual Time 7:17 AM CST 6:13 PM CST
Civil Twilight 6:52 AM CST 6:38 PM CST
Nautical Twilight 6:23 AM CST 7:06 PM CST
Astronomical Twilight 5:55 AM CST 7:34 PM CST
Moon 5:43 AM CST (2/8) 4:49 PM CST (2/8)
Length of Visible Light 11h 46m
Length of Day
10h 56m
Waning Crescent, 3% of the Moon is Illuminated
Feb 8
Waning Crescent
Feb 10
New
Feb 17
First Quarter
Feb 25
Full
Mar 4
Last Quarter

Hourly Weather History & Observations

Time (CST) Temp. Windchill Dew Point Humidity Pressure Visibility Wind Dir Wind Speed Gust Speed Precip Events Conditions
12:15 AM 57.2 °F - 44.6 °F 63% 30.08 in 10.0 mi NNW 11.5 mph 18.4 mph N/A   Clear
12:55 AM 55.4 °F - 44.6 °F 67% 30.09 in 10.0 mi NNW 19.6 mph 25.3 mph N/A   Clear
1:15 AM 55.4 °F - 44.6 °F 67% 30.10 in 10.0 mi NNW 17.3 mph 23.0 mph N/A   Clear
1:35 AM 55.4 °F - 42.8 °F 63% 30.10 in 10.0 mi NNW 16.1 mph 23.0 mph N/A   Clear
1:55 AM 53.6 °F - 42.8 °F 67% 30.10 in 10.0 mi NNW 12.7 mph 24.2 mph N/A   Clear
2:15 AM 53.6 °F - 42.8 °F 67% 30.10 in 10.0 mi NNW 17.3 mph 27.6 mph N/A   Clear
2:35 AM 53.6 °F - 42.8 °F 67% 30.10 in 10.0 mi NNW 16.1 mph 21.9 mph N/A   Clear
2:55 AM 51.8 °F - 42.8 °F 71% 30.11 in 10.0 mi NNW 12.7 mph - N/A   Clear
3:35 AM 51.8 °F - 39.2 °F 62% 30.12 in 10.0 mi North 13.8 mph 20.7 mph N/A   Clear
3:55 AM 50.0 °F - 39.2 °F 66% 30.13 in 10.0 mi NNW 15.0 mph 18.4 mph N/A   Clear
4:15 AM 50.0 °F - 39.2 °F 66% 30.13 in 10.0 mi NNW 11.5 mph - N/A   Clear
4:35 AM 50.0 °F - 39.2 °F 66% 30.13 in 10.0 mi NNW 12.7 mph - N/A   Clear
4:55 AM 48.2 °F - 37.4 °F 66% 30.14 in 10.0 mi NNW 10.4 mph - N/A   Clear
5:15 AM 48.2 °F - 37.4 °F 66% 30.14 in 10.0 mi NNW 12.7 mph - N/A   Clear
5:35 AM 48.2 °F - 37.4 °F 66% 30.14 in 10.0 mi North 9.2 mph 16.1 mph N/A   Clear
5:55 AM 48.2 °F - 37.4 °F 66% 30.15 in 10.0 mi NNW 11.5 mph - N/A   Clear
6:15 AM 46.4 °F 41.1 °F 37.4 °F 71% 30.15 in 10.0 mi North 11.5 mph - N/A   Clear
6:35 AM 46.4 °F 41.9 °F 37.4 °F 71% 30.16 in 10.0 mi NNW 9.2 mph - N/A   Clear
6:48 AM 46.4 °F 41.9 °F 37.4 °F 71% 30.17 in 10.0 mi NNW 9.2 mph - N/A   Clear
7:48 AM 46.4 °F 41.1 °F 37.4 °F 71% 30.19 in 10.0 mi NNW 11.5 mph - N/A   Clear
8:48 AM 51.8 °F - 35.6 °F 54% 30.20 in 10.0 mi North 11.5 mph 18.4 mph N/A   Clear
9:49 AM 55.4 °F - 33.8 °F 44% 30.22 in 10.0 mi North 15.0 mph 20.7 mph N/A   Clear
10:47 AM 59.0 °F - 30.2 °F 34% 30.22 in 10.0 mi NNE 11.5 mph 17.3 mph N/A   Clear
11:48 AM 62.6 °F - 30.2 °F 30% 30.21 in 10.0 mi NNE 11.5 mph 17.3 mph N/A   Clear
12:49 PM 64.4 °F - 28.4 °F 26% 30.18 in 10.0 mi North 9.2 mph - N/A   Clear
1:50 PM 66.2 °F - 26.6 °F 23% 30.14 in 10.0 mi NNE 11.5 mph 17.3 mph N/A   Clear
2:47 PM 68.0 °F - 23.0 °F 18% 30.12 in 10.0 mi NNE 11.5 mph - N/A   Clear
3:47 PM 68.0 °F - 23.0 °F 18% 30.10 in 10.0 mi NNE 5.8 mph - N/A   Clear
4:47 PM 66.2 °F - 21.2 °F 18% 30.09 in 10.0 mi NE 9.2 mph - N/A   Clear
5:48 PM 64.4 °F - 24.8 °F 22% 30.09 in 10.0 mi ENE 5.8 mph - N/A   Clear
6:48 PM 60.8 °F - 24.8 °F 25% 30.10 in 10.0 mi Calm Calm - N/A   Clear
7:47 PM 55.4 °F - 26.6 °F 33% 30.10 in 10.0 mi ENE 3.5 mph - N/A   Clear
8:47 PM 53.6 °F - 35.6 °F 51% 30.10 in 10.0 mi NE 3.5 mph - N/A   Clear
9:47 PM 48.2 °F - 30.2 °F 50% 30.11 in 10.0 mi NE 4.6 mph - N/A   Clear
10:15 PM 50.0 °F - 32.0 °F 50% 30.10 in 10.0 mi ENE 3.5 mph - N/A   Mostly Cloudy
10:35 PM 53.6 °F - 30.2 °F 41% 30.11 in 10.0 mi Calm Calm - N/A   Mostly Cloudy
10:55 PM 51.8 °F - 35.6 °F 54% 30.11 in 10.0 mi Calm Calm - N/A   Mostly Cloudy
11:15 PM 51.8 °F - 32.0 °F 47% 30.10 in 10.0 mi Calm Calm - N/A   Clear
11:35 PM 51.8 °F - 33.8 °F 50% 30.10 in 10.0 mi ENE 5.8 mph - N/A   Clear
11:55 PM 51.8 °F - 33.8 °F 50% 30.09 in 10.0 mi ENE 5.8 mph - N/A   Clear